Tracking 35274 objects as of 11-Sep-2026
HD Live streaming from Space Station
objects crossing your sky now

COSMOS 1588 DEB


COSMOS 1588 DEB is no longer on orbit


NORAD ID: 16711
Int'l Code: 1984-083AV
Launch date: August 7, 1984
Source: Commonwealth of Independent States (former USSR) (CIS)
Launch site: TYURATAM MISSILE AND SPACE COMPLEX (TTMTR)
Decay date: 1986-05-23

Note: This is SATELLITE DEBRIS
Your satellite tracking list
Your tracking list is empty




NASA's NSSDC Master Catalog

Two Line Element Set (TLE):
1 16711U 84083AV  86142.77982560  .11631282 +32093-4 +27951-2 0  9995
2 16711 065.0087 304.2603 0019668 229.1603 134.4526 16.28480526012825
Source of the keplerian elements: AFSPC